Find Starlink 32640

NORAD ID: 62198 Int'l Des: 2024-229 Owner: SPXS Country: US Constellation: starlink operational
LEOCIRCULAR

当前视图

正在加载3D地球...

About Starlink 32640

Starlink 32640 (NORAD 62198) is a starlink constellation satellite (v2 mini) launched Dec 4, 2024 by SPXS of US. It operates in LEO, CIRCULAR orbit with a mass of 730.00 kg.

关于 Starlink 32640

正在加载描述...

即将过境

Passes for default location (London). Set your location on the main map for personalized predictions.

高度历史

Loading altitude history...

两行轨道根数

1 62198U 24229G 26168.01192652 .00014632 00000-0 53994-3 0 9993
2 62198 43.0013 69.6063 0000809 257.3892 102.6869 15.27593797 85754
Epoch: Jun 17, 2026 • Age: 32 hours

当前状态

高度 486.2 km
速度 7.63 km/s
星下点 41.54°N, 106.39°E
发射日期 Dec 4, 2024
运行时间 1.5 years
类型 internet

技术详情

分类 Payload
质量 730.00 kg
干质量 700.00 kg
总质量 730.00 kg
长度 0.30 m
直径 4.10 m
跨度 29.00 m
形状 Box + pan
制造商 SPXS
平台类型 Starlink V2M
阶段状态 In Orbit
所有者/国家 SPXS/US

Most Searched